Regional Weather Roundup
Issued by NWS

Home | Current Version | Previous Version | Text Only | Print | Product List | Glossary Off
Versions: 1 2 3 4 5 6 7 8 9 10 11 12 13 14 15 16 17 18 19 20 21 22 23 24 25 26 27 28 29 30 31 32 33 34 35 36 37 38 39 40 41 42 43 44 45 46 47 48 49 50

000
ASUS43 KOAX 112202
RWRNE

WEATHER ROUNDUP FOR NEBRASKA
NATIONAL WEATHER SERVICE OMAHA NE
500 PM CDT FRI JUL 11 2014

NOTES: SATELLITE DATA IS BEING USED TO AUGMENT CLOUD COVER ABOVE
       12000 FEET.
       "FAIR" INDICATES FEW OR NO CLOUDS BELOW 12,000 FEET WITH NO
       SIGNIFICANT WEATHER AND/OR OBSTRUCTIONS TO VISIBILITY.

  * THESE STATIONS DO NOT REPORT WEATHER SUCH AS RAIN...SNOW OR FOG.

NEZ001>004-019>022-054>056-112300-
NEBRASKA PANHANDLE

CITY           SKY/WX    TMP DP  RH WIND       PRES   REMARKS
SCOTTSBLUFF    MOSUNNY   86  59  39 SE8       30.04S
ALLIANCE       SUNNY     86  62  44 SE12      30.04S
CHADRON        PTSUNNY   86  59  39 E10       30.00F
KIMBALL        MOSUNNY   82  60  47 NE10      30.08R
SIDNEY         MOSUNNY   88  62  41 E16G23    30.05F
$$

NEZ057>060-069>072-079>082-112300-
SOUTHWEST NEBRASKA

CITY           SKY/WX    TMP DP  RH WIND       PRES   REMARKS
NORTH PLATTE   SUNNY     87  70  56 SE13      29.98F HX  92
IMPERIAL       SUNNY     90  69  50 NE20      29.96F HX  94
LEXINGTON      SUNNY     86  75  68 NE9       29.96F HX  95
MCCOOK         SUNNY     97  63  32 S13       29.91F HX  98
OGALLALA       SUNNY     87  64  46 E14       30.00F
$$

NEZ005>010-023>029-035>040-094-112300-
NORTH CENTRAL NEBRASKA

CITY           SKY/WX    TMP DP  RH WIND       PRES   REMARKS
VALENTINE      CLOUDY    85  66  53 E9        30.00F
AINSWORTH      CLOUDY    82  67  60 E7        30.01F
BROKEN BOW     MOSUNNY   86  74  67 SE10      29.98F HX  94
O`NEILL        CLOUDY    82  69  64 E3        29.99S
ORD            PTSUNNY   82  71  69 SE8       29.97S
THEDFORD       PTSUNNY   88  65  47 NE9       30.01F HX  90
$$

NEZ041-046>049-061>064-073>077-083>087-112300-
SOUTH CENTRAL NEBRASKA

CITY           SKY/WX    TMP DP  RH WIND       PRES   REMARKS
GRAND ISLAND   MOSUNNY   86  74  67 E5        29.97F HX  94
AURORA         PTSUNNY   86  76  72 SE3       29.97F HX  96
HASTINGS       PTSUNNY   90  67  46 SE10      29.96F HX  93
HEBRON         MOSUNNY   92  68  44 S8        29.94F HX  96
HOLDREGE       SUNNY     93  67  42 SE10      29.94F HX  97
KEARNEY *      MOSUNNY   90  73  58 E9        29.96F HX  98
YORK           PTSUNNY   86  75  70 S5        29.97S HX  95
$$

NEZ011>018-030>034-042>045-112300-
NORTHEAST NEBRASKA

CITY           SKY/WX    TMP DP  RH WIND       PRES   REMARKS
NORFOLK        CLOUDY    78  71  79 E3        29.99S
ALBION         CLOUDY    78  71  78 SE6       29.98F
BLAIR          CLOUDY    80  71  72 NE3       29.98S
FREMONT        CLOUDY    83  73  71 SE3       29.98F
TEKAMAH        CLOUDY    79  71  76 E6        29.97F
WAYNE          CLOUDY    79  72  80 CALM      30.00S
$$

NEZ050>053-065>068-078-088>093-112300-
SOUTHEAST NEBRASKA

CITY           SKY/WX    TMP DP  RH WIND       PRES   REMARKS
LINCOLN        PTSUNNY   91  73  55 S7        29.95F HX  99
OMAHA EPPLEY   CLOUDY    81  72  74 SE6       29.97F
BEATRICE       MOSUNNY   89  72  56 S13G18    29.95F HX  96
FALLS CITY     PTSUNNY   89  74  60 S13       29.96F HX  98
NEBRASKA CITY  CLOUDY    85  73  67 S7        29.97F HX  92
PLATTSMOUTH    CLOUDY    84  72  67 CALM      29.98R
$$

NEZ044-045-051>053-067-112300-
OMAHA AREA

CITY           SKY/WX    TMP DP  RH WIND       PRES   REMARKS
OMAHA EPPLEY   CLOUDY    81  72  74 SE6       29.97F
BLAIR          CLOUDY    80  71  72 NE3       29.98S
FREMONT        CLOUDY    83  73  71 SE3       29.98F
MILLARD        CLOUDY    84  74  71 SE6       29.96F HX  91
OFFUTT AFB     CLOUDY    85  77  78 VRB3      29.96S HX  95
PLATTSMOUTH    CLOUDY    84  72  67 CALM      29.98R
WAHOO          FAIR      84  72  67 CALM      29.97F HX  90
$$



USA.gov is the U.S. government's official web portal to all federal, state and local government web resources and services.